Weather History for KTKV - May, 2014

Change the Weather History Date:

Saturday, May 17, 2014

  Actual Average (KRHI) Record (KRHI)
Temperature  
Mean Temperature 42 °F 53 °F  
Max Temperature 60 °F 66 °F 88 °F (1911)
Min Temperature 26 °F 41 °F 23 °F (1918)
Degree Days  
Heating Degree Days 22 12  
Month to date heating degree days 245  
Since 1 July heating degree days 8745  
Cooling Degree Days 0 0  
Month to date cooling degree days 0  
Year to date cooling degree days 1  
Moisture  
Dew Point 26 °F    
Average Humidity 51    
Maximum Humidity 95    
Minimum Humidity 23    
Precipitation  
Precipitation 0.00 in 0.12 in 2.07 in (1960)
Month to date precipitation 1.84  
Year to date precipitation 8.03  
Snow  
Snow 0.00 in - T in (1916)
Month to date snowfall  
Since 1 July snowfall  
Snow Depth -    
Sea Level Pressure  
Sea Level Pressure 29.98 in    
Wind  
Wind Speed 2 mph (West)    
Max Wind Speed 14 mph    
Max Gust Speed 23 mph    
Visibility 10 miles    
Events      
T = Trace of Precipitation, MM = Missing Value Source: NWS Daily Summary

Daily Weather History Graph

Daily Weather History Graph

Search for Another Location

Airport or City:

Trip Planner

Search our weather history database for the weather conditions in past years. The results will help you decide how hot, cold, wet, or windy it might be!

Date:

Astronomy

May. 17, 2014 Rise Set
Actual Time 5:26 AM CDT 8:25 PM CDT
Civil Twilight 4:51 AM CDT 9:00 PM CDT
Nautical Twilight 4:07 AM CDT 9:45 PM CDT
Astronomical Twilight 3:13 AM CDT 10:39 PM CDT
Moon 11:24 PM CDT (5/17) 8:09 AM CDT (5/17)
Length of Visible Light 16h 08m
Length of Day
14h 58m
Waning Gibbous, 89% of the Moon is Illuminated
May 17
Waning Gibbous
May 21
Last Quarter
May 28
New
Jun 5
First Quarter
Jun 12
Full

Hourly Weather History & Observations

Time (CDT) Temp. Dew Point Humidity Pressure Visibility Wind Dir Wind Speed Gust Speed Precip Events Conditions
12:15 AM 29.5 °F 26.8 °F 90% 30.02 in 10.0 mi Calm Calm - N/A   Mostly Cloudy
12:35 AM 29.7 °F 27.3 °F 91% 30.01 in 10.0 mi Calm Calm - N/A   Mostly Cloudy
12:55 AM 28.9 °F 27.1 °F 93% 30.01 in 10.0 mi Calm Calm - N/A   Overcast
1:15 AM 29.3 °F 27.3 °F 92% 30.01 in 10.0 mi Calm Calm - N/A   Overcast
1:35 AM 30.4 °F 28.2 °F 92% 30.01 in 10.0 mi Calm Calm - N/A   Overcast
1:55 AM 30.9 °F 28.2 °F 90% 30.01 in 10.0 mi Calm Calm - N/A   Overcast
2:15 AM 31.1 °F 28.8 °F 91% 30.01 in 10.0 mi Calm Calm - N/A   Overcast
2:35 AM 35.6 °F 28.9 °F 77% 30.00 in 10.0 mi Calm Calm - N/A   Overcast
2:55 AM 36.0 °F 27.9 °F 72% 30.00 in 10.0 mi Calm Calm - N/A   Overcast
3:15 AM 34.7 °F 27.7 °F 76% 30.00 in 10.0 mi Calm Calm - N/A   Scattered Clouds
3:35 AM 32.0 °F 27.7 °F 84% 29.99 in 10.0 mi Calm Calm - N/A   Scattered Clouds
3:55 AM 30.2 °F 27.0 °F 88% 29.99 in 10.0 mi Calm Calm - N/A   Scattered Clouds
4:15 AM 29.1 °F 26.4 °F 90% 29.99 in 10.0 mi Calm Calm - N/A   Clear
4:35 AM 28.8 °F 26.6 °F 92% 29.98 in 10.0 mi Calm Calm - N/A   Clear
5:15 AM 26.6 °F 25.2 °F 94% 29.99 in 10.0 mi Calm Calm - N/A   Clear
5:35 AM 27.9 °F 26.6 °F 95% 29.98 in 10.0 mi Calm Calm - N/A   Clear
5:55 AM 27.1 °F 25.7 °F 94% 29.98 in 10.0 mi Calm Calm - N/A   Clear
6:15 AM 27.9 °F 26.6 °F 95% 29.99 in 10.0 mi Calm Calm - N/A   Clear
6:35 AM 29.5 °F 28.2 °F 95% 29.99 in 10.0 mi Calm Calm - N/A   Clear
6:55 AM 32.2 °F 30.6 °F 94% 29.99 in 10.0 mi Calm Calm - N/A   Clear
7:15 AM 37.2 °F 30.9 °F 78% 29.99 in 10.0 mi Calm Calm - N/A   Clear
7:35 AM 41.0 °F 30.4 °F 66% 29.99 in 10.0 mi Calm Calm - N/A   Clear
7:55 AM 43.0 °F 29.1 °F 58% 29.99 in 10.0 mi Calm Calm - N/A   Clear
8:15 AM 45.7 °F 29.5 °F 53% 29.99 in 10.0 mi Calm Calm - N/A   Clear
8:35 AM 47.8 °F 28.0 °F 46% 29.99 in 10.0 mi West 4.6 mph - N/A   Clear
8:55 AM 49.3 °F 27.1 °F 42% 29.99 in 10.0 mi Calm Calm - N/A   Clear
9:15 AM 51.1 °F 25.7 °F 37% 29.99 in 10.0 mi West 6.9 mph - N/A   Clear
9:35 AM 52.2 °F 22.8 °F 32% 29.98 in 10.0 mi WNW 4.6 mph - N/A   Clear
9:55 AM 52.7 °F 20.5 °F 28% 29.98 in 10.0 mi West 8.1 mph - N/A   Scattered Clouds
10:15 AM 52.3 °F 20.5 °F 29% 29.98 in 10.0 mi WNW 13.8 mph 17.3 mph N/A   Scattered Clouds
10:35 AM 53.2 °F 21.7 °F 29% 29.98 in 10.0 mi West 10.4 mph 18.4 mph N/A   Scattered Clouds
10:55 AM 53.2 °F 22.6 °F 30% 29.98 in 10.0 mi West 8.1 mph - N/A   Scattered Clouds
11:15 AM 54.5 °F 21.6 °F 28% 29.98 in 10.0 mi West 8.1 mph 17.3 mph N/A   Scattered Clouds
11:35 AM 55.8 °F 23.0 °F 28% 29.98 in 10.0 mi WSW 6.9 mph - N/A   Scattered Clouds
11:55 AM 55.4 °F 21.9 °F 27% 29.98 in 10.0 mi WNW 10.4 mph 19.6 mph N/A   Scattered Clouds
12:15 PM 55.9 °F 22.6 °F 28% 29.98 in 10.0 mi West 12.7 mph 18.4 mph N/A   Scattered Clouds
12:35 PM 55.8 °F 22.6 °F 28% 29.97 in 10.0 mi NW 3.5 mph 16.1 mph N/A   Scattered Clouds
12:55 PM 56.1 °F 22.8 °F 28% 29.97 in 10.0 mi West 10.4 mph - N/A   Scattered Clouds
1:15 PM 57.4 °F 23.5 °F 27% 29.97 in 10.0 mi WNW 9.2 mph 19.6 mph N/A   Scattered Clouds
1:35 PM 57.0 °F 21.9 °F 26% 29.96 in 10.0 mi West 13.8 mph 19.6 mph N/A   Scattered Clouds
1:55 PM 58.3 °F 21.6 °F 24% 29.97 in 10.0 mi WNW 10.4 mph 19.6 mph N/A   Mostly Cloudy
2:15 PM 59.7 °F 21.9 °F 23% 29.96 in 10.0 mi West 13.8 mph 23.0 mph N/A   Scattered Clouds
2:35 PM 58.3 °F 22.6 °F 25% 29.96 in 10.0 mi West 6.9 mph 21.9 mph N/A   Scattered Clouds
2:55 PM 57.9 °F 22.6 °F 26% 29.96 in 10.0 mi West 8.1 mph 19.6 mph N/A   Scattered Clouds
3:15 PM 57.4 °F 22.8 °F 26% 29.96 in 10.0 mi West 3.5 mph - N/A   Mostly Cloudy
3:35 PM 57.7 °F 23.9 °F 27% 29.96 in 10.0 mi West 9.2 mph 17.3 mph N/A   Mostly Cloudy
3:55 PM 57.4 °F 24.3 °F 28% 29.96 in 10.0 mi West 9.2 mph - N/A   Overcast
4:15 PM 58.1 °F 24.6 °F 28% 29.96 in 10.0 mi West 5.8 mph 16.1 mph N/A   Overcast
4:35 PM 58.1 °F 25.2 °F 28% 29.96 in 10.0 mi West 5.8 mph - N/A   Mostly Cloudy
4:55 PM 57.0 °F 25.0 °F 29% 29.96 in 10.0 mi Calm Calm - N/A   Overcast
5:15 PM 58.5 °F 24.4 °F 27% 29.96 in 10.0 mi West 10.4 mph - N/A   Overcast
5:35 PM 58.1 °F 25.2 °F 28% 29.97 in 10.0 mi West 12.7 mph - N/A   Overcast
5:55 PM 56.7 °F 25.3 °F 30% 29.97 in 10.0 mi Calm Calm - N/A   Mostly Cloudy
6:15 PM 57.7 °F 25.3 °F 29% 29.97 in 10.0 mi West 11.5 mph 16.1 mph N/A   Mostly Cloudy
6:35 PM 57.6 °F 25.3 °F 29% 29.97 in 10.0 mi Calm Calm - N/A   Scattered Clouds
6:55 PM 57.2 °F 24.6 °F 29% 29.97 in 10.0 mi Calm Calm - N/A   Mostly Cloudy
7:15 PM 57.7 °F 24.6 °F 28% 29.97 in 10.0 mi Calm Calm - N/A   Mostly Cloudy
7:35 PM 56.8 °F 24.1 °F 28% 29.97 in 10.0 mi Calm Calm - N/A   Scattered Clouds
7:55 PM 55.2 °F 24.3 °F 30% 29.98 in 10.0 mi Calm Calm - N/A   Clear
8:15 PM 54.0 °F 24.3 °F 32% 29.98 in 10.0 mi Calm Calm - N/A   Clear
8:35 PM 52.3 °F 24.6 °F 34% 29.98 in 10.0 mi Calm Calm - N/A   Clear
8:55 PM 50.4 °F 26.1 °F 39% 29.99 in 10.0 mi Calm Calm - N/A   Clear
9:15 PM 46.9 °F 27.0 °F 46% 29.99 in 10.0 mi Calm Calm - N/A   Clear
9:35 PM 45.7 °F 27.1 °F 48% 30.00 in 10.0 mi Calm Calm - N/A   Clear
9:55 PM 45.5 °F 27.3 °F 49% 30.00 in 10.0 mi Calm Calm - N/A   Clear
10:15 PM 45.1 °F 27.3 °F 50% 30.00 in 10.0 mi Calm Calm - N/A   Clear
10:35 PM 43.3 °F 27.9 °F 54% 30.01 in 10.0 mi Calm Calm - N/A   Clear
11:15 PM 43.0 °F 27.1 °F 54% 30.01 in 10.0 mi Calm Calm - N/A   Clear
11:35 PM 37.9 °F 28.0 °F 68% 30.01 in 10.0 mi Calm Calm - N/A   Clear
11:55 PM 41.0 °F 28.2 °F 60% 30.02 in 10.0 mi Calm Calm - N/A   Clear